timestamp,surface_pressure_avg,surface_temp_avg,battery_voltage,lat,long
2020-11-23 00:09:01+00:00,233.9698,6.91,12.65,47.84626,-54.09684
2020-11-23 00:19:01+00:00,229.7414,7.0,12.65,47.84626,-54.09684
2020-11-23 00:29:01+00:00,229.5931,7.0,12.65,47.84626,-54.09684
2020-11-23 00:39:01+00:00,230.5865,7.0,12.65,47.84626,-54.09684
2020-11-23 00:49:01+00:00,232.6314,7.0,12.65,47.84626,-54.09684
2020-11-23 00:59:01+00:00,230.0981,7.0,12.65,47.84626,-54.09684
2020-11-23 01:09:01+00:00,232.3365,7.0,12.65,47.84626,-54.09684
2020-11-23 01:19:01+00:00,234.3098,7.0,12.65,47.84626,-54.09684
2020-11-23 01:29:01+00:00,236.0798,7.0,12.65,47.84626,-54.09684
2020-11-23 01:39:01+00:00,233.0364,6.9,12.65,47.84626,-54.09684
2020-11-23 01:49:01+00:00,232.2897,6.9,12.65,47.84626,-54.09684
2020-11-23 01:59:01+00:00,232.8664,6.9,12.65,47.84626,-54.09684
2020-11-23 02:09:01+00:00,233.8098,6.9,12.65,47.84626,-54.09684
2020-11-23 02:19:01+00:00,232.4898,6.8,12.65,47.84626,-54.09684
2020-11-23 02:29:01+00:00,233.8497,6.74,12.65,47.84626,-54.09684
2020-11-23 02:39:01+00:00,235.7681,6.76,12.65,47.84626,-54.09684
2020-11-23 02:49:01+00:00,239.5464,6.79,12.65,47.84626,-54.09684
2020-11-23 02:59:01+00:00,247.3248,6.8,12.65,47.84626,-54.09684
2020-11-23 03:09:01+00:00,253.5764,6.78,12.65,47.84626,-54.09684
2020-11-23 04:19:01+00:00,274.9981,7.0,12.65,47.84626,-54.09684
2020-11-23 04:29:01+00:00,281.4114,7.0,12.65,47.84626,-54.09684
2020-11-23 04:39:01+00:00,284.9164,7.0,12.65,47.84626,-54.09684
2020-11-23 04:49:01+00:00,290.4731,7.07,12.65,47.84626,-54.09684
2020-11-23 04:59:01+00:00,292.1163,7.1,12.65,47.84626,-54.09684
2020-11-23 05:09:01+00:00,292.0013,7.1,12.65,47.84626,-54.09684
2020-11-23 05:19:01+00:00,291.5447,7.19,12.65,47.84626,-54.09684
2020-11-23 05:29:01+00:00,294.3314,7.2,12.65,47.84626,-54.09684
2020-11-23 05:39:01+00:00,294.798,7.2,12.65,47.84626,-54.09684
2020-11-23 05:49:01+00:00,298.1364,7.1,12.65,47.84626,-54.09684
2020-11-23 05:59:01+00:00,301.1431,7.1,12.65,47.84626,-54.09684
2020-11-23 06:09:01+00:00,303.3731,7.1,12.65,47.84626,-54.09684
2020-11-23 06:19:01+00:00,306.103,7.1,12.65,47.84626,-54.09684
2020-11-23 06:29:01+00:00,305.2664,7.09,12.65,47.84626,-54.09684
2020-11-23 06:39:01+00:00,303.5064,7.08,12.65,47.84626,-54.09684
2020-11-23 06:49:01+00:00,302.1297,7.1,12.65,47.84626,-54.09684
2020-11-23 06:59:01+00:00,304.5747,7.17,12.65,47.84626,-54.09684
2020-11-23 07:09:01+00:00,297.4147,7.2,12.65,47.84626,-54.09684
2020-11-23 07:19:01+00:00,286.423,7.17,12.65,47.84626,-54.09684
2020-11-23 07:29:01+00:00,285.9431,7.18,12.65,47.84626,-54.09684
2020-11-23 07:39:01+00:00,291.113,7.19,12.65,47.84626,-54.09684
2020-11-23 07:49:01+00:00,291.1931,7.2,12.65,47.84626,-54.09684
2020-11-23 07:59:01+00:00,286.5064,7.19,12.65,47.84626,-54.09684
2020-11-23 08:09:01+00:00,282.6014,7.1,12.65,47.84626,-54.09684
2020-11-23 08:19:01+00:00,277.6231,7.09,12.65,47.84626,-54.09684
2020-11-23 08:29:01+00:00,269.9647,7.0,12.65,47.84626,-54.09684
2020-11-23 08:39:01+00:00,265.6931,7.0,12.65,47.84626,-54.09684
2020-11-23 08:49:01+00:00,263.1598,7.0,12.65,47.84626,-54.09684
2020-11-23 08:59:01+00:00,256.1464,7.0,12.65,47.84626,-54.09684
2020-11-23 09:09:01+00:00,249.6664,7.0,12.65,47.84626,-54.09684
2020-11-23 09:19:01+00:00,247.1164,7.01,12.57,47.84626,-54.09684
2020-11-23 09:29:01+00:00,242.4031,7.0,12.57,47.84626,-54.09684
2020-11-23 09:39:01+00:00,238.0697,7.0,12.57,47.84626,-54.09684
2020-11-23 09:49:01+00:00,233.1581,7.0,12.57,47.84626,-54.09684
2020-11-23 09:59:01+00:00,229.7714,7.0,12.57,47.84626,-54.09684
2020-11-23 10:09:01+00:00,223.9214,6.9,12.57,47.84626,-54.09684
2020-11-23 10:19:01+00:00,215.7565,6.88,12.57,47.84626,-54.09684
2020-11-23 10:29:01+00:00,214.5515,6.8,12.57,47.84626,-54.09684
2020-11-23 10:39:01+00:00,217.3731,6.7,12.57,47.84626,-54.09684
2020-11-23 10:49:01+00:00,210.1981,6.6,12.57,47.84626,-54.09684
2020-11-23 10:59:01+00:00,208.1264,6.4,12.57,47.84626,-54.09684
2020-11-23 11:09:01+00:00,213.3881,6.4,12.57,47.84626,-54.09684
2020-11-23 11:19:01+00:00,211.8398,6.47,12.81,47.84626,-54.09684
2020-11-23 11:29:01+00:00,204.5198,6.5,12.81,47.84626,-54.09684
2020-11-23 11:39:01+00:00,203.7265,6.42,12.81,47.84626,-54.09684
2020-11-23 11:49:01+00:00,203.5215,6.41,12.81,47.84626,-54.09684
2020-11-23 11:59:01+00:00,200.9781,6.4,12.81,47.84626,-54.09684
2020-11-23 12:09:01+00:00,202.5048,6.4,12.81,47.84626,-54.09684
2020-11-23 12:19:01+00:00,206.6198,6.37,14.32,47.84626,-54.09684
2020-11-23 12:29:01+00:00,203.7514,6.3,14.32,47.84626,-54.09684
2020-11-23 12:39:01+00:00,204.1981,6.2,14.32,47.84626,-54.09684
2020-11-23 12:49:01+00:00,207.6098,6.1,14.32,47.84626,-54.09684
2020-11-23 12:59:01+00:00,207.2248,6.09,14.32,47.84626,-54.09684
2020-11-23 13:09:01+00:00,205.1798,6.0,14.32,47.84626,-54.09684
2020-11-23 13:19:01+00:00,204.6381,6.0,14.72,47.84626,-54.09684
2020-11-23 13:29:01+00:00,202.4615,5.8,14.72,47.84626,-54.09684
2020-11-23 13:39:01+00:00,202.8398,5.63,14.72,47.84626,-54.09684
2020-11-23 13:49:01+00:00,206.8314,5.73,14.72,47.84626,-54.09684
2020-11-23 13:59:01+00:00,206.6064,5.8,14.72,47.84626,-54.09684
2020-11-23 14:09:01+00:00,208.3031,5.7,14.72,47.84626,-54.09684
2020-11-23 14:19:01+00:00,211.9415,5.64,14.88,47.84626,-54.09684
2020-11-23 14:29:01+00:00,214.7498,5.9,14.88,47.84626,-54.09684
2020-11-23 14:39:01+00:00,218.7981,6.25,14.88,47.84626,-54.09684
2020-11-23 14:49:01+00:00,222.1131,6.67,14.88,47.84626,-54.09684
2020-11-23 14:59:01+00:00,222.6797,6.94,14.88,47.84626,-54.09684
2020-11-23 15:09:01+00:00,223.2431,7.1,14.88,47.84626,-54.09684
2020-11-23 15:19:01+00:00,222.8215,7.17,14.72,47.84626,-54.09684
2020-11-23 15:29:01+00:00,227.3665,7.2,14.72,47.84626,-54.09684
2020-11-23 15:39:01+00:00,237.4898,7.2,14.72,47.84626,-54.09684
2020-11-23 15:49:01+00:00,242.3131,7.2,14.72,47.84626,-54.09684
2020-11-23 15:59:01+00:00,246.0981,7.2,14.72,47.84626,-54.09684
2020-11-23 16:09:01+00:00,254.5147,7.2,14.72,47.84626,-54.09684
2020-11-23 16:19:01+00:00,261.4581,7.2,14.56,47.84626,-54.09684
2020-11-23 16:29:01+00:00,265.3598,7.19,14.56,47.84626,-54.09684
2020-11-23 16:39:01+00:00,268.1597,7.16,14.56,47.84626,-54.09684
2020-11-23 16:49:01+00:00,271.08299999999997,7.1,14.56,47.84626,-54.09684
2020-11-23 16:59:01+00:00,278.0014,7.1,14.56,47.84626,-54.09684
2020-11-23 17:09:01+00:00,286.5013,7.1,14.56,47.84626,-54.09684
2020-11-23 17:19:01+00:00,287.0031,7.1,14.16,47.84626,-54.09684
2020-11-23 17:29:01+00:00,287.9747,7.1,14.16,47.84626,-54.09684
2020-11-23 17:39:01+00:00,292.723,7.1,14.16,47.84626,-54.09684
2020-11-23 17:49:01+00:00,293.0046,7.1,14.16,47.84626,-54.09684
2020-11-23 17:59:01+00:00,292.953,7.1,14.16,47.84626,-54.09684
2020-11-23 18:09:01+00:00,299.5314,7.09,14.16,47.84626,-54.09684
2020-11-23 18:19:01+00:00,302.9263,7.08,13.92,47.84626,-54.09684
2020-11-23 18:29:01+00:00,299.6963,7.0,13.92,47.84626,-54.09684
2020-11-23 18:39:01+00:00,303.6514,7.0,13.92,47.84626,-54.09684
2020-11-23 18:49:01+00:00,306.938,7.0,13.92,47.84626,-54.09684
2020-11-23 18:59:01+00:00,304.2164,7.0,13.92,47.84626,-54.09684
2020-11-23 19:09:01+00:00,301.8313,6.99,13.92,47.84626,-54.09684
2020-11-23 19:19:01+00:00,302.5364,7.0,13.68,47.84626,-54.09684
2020-11-23 19:29:01+00:00,302.593,7.09,13.68,47.84626,-54.09684
2020-11-23 19:39:01+00:00,298.5731,7.2,13.68,47.84626,-54.09684
2020-11-23 19:49:01+00:00,295.9714,7.2,13.68,47.84626,-54.09684
2020-11-23 19:59:01+00:00,296.5031,7.22,13.68,47.84626,-54.09684
2020-11-23 20:09:01+00:00,296.2081,7.23,13.68,47.84626,-54.09684
2020-11-23 20:19:01+00:00,290.7513,7.27,13.29,47.84626,-54.09684
2020-11-23 20:29:01+00:00,285.8514,7.3,13.29,47.84626,-54.09684
2020-11-23 20:39:01+00:00,284.0897,7.3,13.29,47.84626,-54.09684
2020-11-23 20:49:01+00:00,287.9397,7.3,13.29,47.84626,-54.09684
2020-11-23 20:59:01+00:00,286.7913,7.3,13.29,47.84626,-54.09684
2020-11-23 21:09:01+00:00,280.9097,7.3,13.29,47.84626,-54.09684
2020-11-23 21:19:01+00:00,280.8814,7.3,12.89,47.84626,-54.09684
2020-11-23 21:29:01+00:00,279.1447,7.3,12.89,47.84626,-54.09684
2020-11-23 21:39:01+00:00,273.5231,7.3,12.89,47.84626,-54.09684
2020-11-23 21:49:01+00:00,267.0247,7.3,12.89,47.84626,-54.09684
2020-11-23 21:59:01+00:00,269.3381,7.3,12.89,47.84626,-54.09684
2020-11-23 22:09:01+00:00,266.0331,7.3,12.89,47.84626,-54.09684
2020-11-23 22:19:01+00:00,255.53799999999998,7.29,12.65,47.84626,-54.09684
2020-11-23 22:29:01+00:00,246.8898,7.29,12.65,47.84626,-54.09684
2020-11-23 22:39:01+00:00,249.0198,7.28,12.65,47.84626,-54.09684
2020-11-23 22:49:01+00:00,244.9181,7.27,12.65,47.84626,-54.09684
2020-11-23 22:59:01+00:00,238.9381,7.25,12.65,47.84626,-54.09684
2020-11-23 23:09:01+00:00,238.5431,7.23,12.65,47.84626,-54.09684
2020-11-23 23:19:01+00:00,237.7448,7.21,12.65,47.84626,-54.09684
2020-11-23 23:29:01+00:00,230.1597,7.2,12.65,47.84626,-54.09684
2020-11-23 23:39:01+00:00,224.6814,7.23,12.65,47.84626,-54.09684
2020-11-23 23:49:01+00:00,224.6764,7.2,12.65,47.84626,-54.09684
2020-11-23 23:59:01+00:00,221.3831,7.2,12.65,47.84626,-54.09684
